STARLINK-5697, 55589

Orbit data source: Space-Track

STARLINK-5697, 55589 is a payload satellite owned by SpaceX/Seattle (US) in LEO that was launched on Sun, 12 Feb 2023 UTC via an FALCON 9 launch vehicle from the Air Force Eastern Test Range (AFETR). Payload-class satellites include a variety of spacecraft equipped with specific instruments for various scientific and technological missions. These include communications satellites like Starlink; space stations such as the ISS; scientific satellites like the Hubble; Earth observation satellites from companies like Planet Labs, Umbra, and HawkEye 360; GPS; miniature CubeSats for education and research; and military/defense satellites.

Loading next visibility...
Identifier
55589, 2023-020W
Orbit
LEO
Country
Flag of USUS
Related business
Manufacturer
SpaceX/Seattle
Mission
Operational Commercial Communications
Bus & Motor
STARLINK, Unknown motor
Mass
305 kg wet, ~290 kg dry
Launch date (UTC)
2023-02-12 (4 years ago)
Launch vehicle
FALCON 9
Launch site
Air Force Eastern Test Range (AFETR)
Object type
Payload
Rocket body
Debris
Shape & HBR
Box + 1 Pan, 10.1 m
Radar Cross Section
13.562 m², Large (>1 m²)

Expand to show TLE details & history
Last TLE update: 9 hours ago

TLE from 9 hours ago
0 STARLINK-5697
1 55589U 23020W   26264.20157077 -.00000877  00000-0 -22332-4 0  9998
2 55589  43.0050 341.0663 0001556 288.6967  71.3716 15.27577799198813
Epoch: 2026-09-21T04:50Z
TLE epoch observation values (Epoch: 2026-09-21T04:50:15.714Z)
Latitude
-0°
Longitude
-91.58397°
Altitude
482.491 km
Speed
7.626 km/s
True Right ascension
22h 44m 15s
True Declination
0° 00' 00"
Sunlit
Object was in full shadow at epoch
Visualization orbit readout
Latitude
Unknown
Longitude
Unknown
Altitude
Unknown
Speed
Unknown
Apparent Right ascension
Unknown
Apparent Declination
Unknown
Sunlit
N/A
Visualization observer readout
Local Sidereal Time
06:57:26
Azimuth
Unknown
Elevation
Unknown
Doppler factor
Unknown
Orbital elements
Apogee altitude
486.068 km
Perigee altitude
483.932 km
Semi-major axis
6,863.137 km
Eccentricity
0.00016
Inclination
43.005°
RAAN
341.0663°
Arg. of periapsis
288.6967°
True anomaly
71.3885°
Mean anomaly
71.3716°
Eccentric anomaly
71.38005°
Mean motion
3.81733 °/min
Orbital period
94.31 mins
BSTAR
-0.000022332
Loading maneuver chart data...
Computing Atmospheric mass density...
Loading historical data...
Loading historical data...
Loading historical data...
Loading historical data...
Loading historical data...
Loading historical data...
Loading historical data...

Documentation

Showing up to 5 results
|